Cloquet, MN

8:18 AM CDT on April 24, 2017 (GMT -0500)
Cloquet Carlton County

Weather History for KCOQ - June, 2013

Change the Weather History Date:

Friday, June 21, 2013

  Actual Average Record
Temperature  
Mean Temperature 60 °F -  
Max Temperature 69 °F 70 °F 80 °F (2003)
Min Temperature 51 °F 50 °F 42 °F (2007)
Degree Days  
Heating Degree Days 5    
Growing Degree Days 10 (Base 50)    
Moisture  
Dew Point 57 °F    
Average Humidity 91    
Maximum Humidity 100    
Minimum Humidity 78    
Precipitation  
Precipitation 1.71 in - - ()
Sea Level Pressure  
Sea Level Pressure 29.97 in    
Wind  
Wind Speed 8 mph (East)    
Max Wind Speed 28 mph    
Max Gust Speed 43 mph    
Visibility 6 miles    
Events Fog , Rain , Thunderstorm    
Averages and records for this station are not official NWS values.
T = Trace of Precipitation, MM = Missing Value Source: NWS Daily Summary

Daily Weather History Graph

Daily Weather History Graph

Search for Another Location

Airport or City:

Trip Planner

Search our weather history database for the weather conditions in past years. The results will help you decide how hot, cold, wet, or windy it might be!

Date:

Astronomy

Jun. 21, 2013 Rise Set
Actual Time 5:16 AM CDT 9:07 PM CDT
Civil Twilight 4:36 AM CDT 9:47 PM CDT
Nautical Twilight 3:42 AM CDT 10:40 PM CDT
Astronomical Twilight 2:23 AM CDT 11:59 PM CDT
Moon 7:14 PM CDT (6/21) 3:38 AM CDT (6/21)
Length of Visible Light 17h 10m
Length of Day
15h 51m
Waxing Gibbous, 95% of the Moon is Illuminated
Jun 21
Waxing Gibbous
Jun 23
Full
Jun 29
Last Quarter
Jul 8
New
Jul 15
First Quarter

Hourly Weather History & Observations

Time (CDT) Temp. Dew Point Humidity Pressure Visibility Wind Dir Wind Speed Gust Speed Precip Events Conditions
12:15 AM 53.6 °F 51.8 °F 94% 29.97 in 0.2 mi East 10.4 mph - N/A Fog Fog
12:36 AM 53.6 °F 51.8 °F 94% 29.98 in 0.2 mi East 8.1 mph 16.1 mph N/A Fog Fog
12:56 AM 51.8 °F 51.8 °F 100% 29.95 in 0.2 mi East 9.2 mph - N/A Fog Fog
1:16 AM 51.8 °F 51.8 °F 100% 29.96 in 0.2 mi SE 5.8 mph - N/A Rain Rain
1:36 AM 51.8 °F 50.0 °F 94% 29.95 in 0.2 mi East 8.1 mph - 0.01 in Rain , Thunderstorm Light Thunderstorms and Rain
1:56 AM 51.8 °F 51.8 °F 100% 29.95 in 0.2 mi ENE 5.8 mph - N/A Rain , Thunderstorm Light Thunderstorms and Rain
2:16 AM 51.8 °F 50.0 °F 94% 29.94 in 1.0 mi ENE 10.4 mph - 0.01 in Rain , Thunderstorm Thunderstorms and Rain
2:36 AM 51.8 °F 50.0 °F 94% 29.94 in 1.0 mi ENE 9.2 mph - 0.04 in Rain , Thunderstorm Heavy Thunderstorms and Rain
2:56 AM 51.8 °F 50.0 °F 94% 29.94 in 3.0 mi East 6.9 mph - N/A Rain , Thunderstorm Light Thunderstorms and Rain
3:16 AM 53.6 °F 51.8 °F 94% 29.97 in 10.0 mi Calm Calm - 0.03 in Rain , Thunderstorm Thunderstorms and Rain
3:36 AM 55.4 °F 53.6 °F 94% 29.95 in 5.0 mi NNW 10.4 mph - 0.15 in Rain , Thunderstorm Heavy Thunderstorms and Rain
3:56 AM 55.4 °F 55.4 °F 100% 29.95 in 7.0 mi NNE 4.6 mph - N/A Rain , Thunderstorm Thunderstorms and Rain
4:16 AM 57.2 °F 55.4 °F 94% 29.95 in 10.0 mi North 8.1 mph - 0.09 in Rain , Thunderstorm Heavy Thunderstorms and Rain
4:36 AM 57.2 °F 57.2 °F 100% 29.95 in 10.0 mi North 10.4 mph - 0.19 in Rain , Thunderstorm Heavy Thunderstorms and Rain
4:55 AM 60.8 °F 57.2 °F 88% 29.96 in 10.0 mi North 6.9 mph - 0.29 in Rain , Thunderstorm Heavy Thunderstorms and Rain
5:16 AM 60.8 °F 59.0 °F 94% 29.98 in 1.5 mi Calm Calm - 0.23 in Rain , Thunderstorm Heavy Thunderstorms and Rain
5:36 AM 60.8 °F 59.0 °F 94% 29.96 in 4.0 mi North 8.1 mph - 0.63 in Rain , Thunderstorm Heavy Thunderstorms and Rain
5:55 AM 60.8 °F 60.8 °F 100% 29.96 in 10.0 mi NNW 6.9 mph - 0.78 in Rain , Thunderstorm Heavy Thunderstorms and Rain
6:16 AM 60.8 °F 59.0 °F 94% 29.96 in 10.0 mi North 4.6 mph - 0.14 in Rain Heavy Rain
6:36 AM 60.8 °F 59.0 °F 94% 29.95 in 4.0 mi East 9.2 mph - 0.28 in Rain Heavy Rain
6:55 AM 59.0 °F 57.2 °F 94% 29.93 in 10.0 mi East 10.4 mph 17.3 mph 0.36 in Rain Rain
7:16 AM 57.2 °F 57.2 °F 100% 29.82 in 7.0 mi East 19.6 mph 28.8 mph 0.07 in Rain Light Rain
7:35 AM 59.0 °F 57.2 °F 94% 29.64 in 7.0 mi East 27.6 mph 42.6 mph 0.08 in Rain Light Rain
7:56 AM 57.2 °F 55.4 °F 94% 29.72 in 10.0 mi East 24.2 mph 38.0 mph N/A   Unknown
8:16 AM 60.8 °F 57.2 °F 88% 29.89 in 10.0 mi WNW 19.6 mph 26.5 mph N/A   Mostly Cloudy
8:35 AM 60.8 °F 60.8 °F 100% 29.88 in 10.0 mi East 3.5 mph 20.7 mph N/A   Overcast
8:56 AM 62.6 °F 60.8 °F 94% 29.90 in 10.0 mi Calm Calm - N/A   Overcast
9:16 AM 62.6 °F 60.8 °F 94% 29.92 in 10.0 mi Calm Calm - N/A   Overcast
9:36 AM 62.6 °F 60.8 °F 94% 29.94 in 10.0 mi Calm Calm - N/A   Overcast
9:56 AM 64.4 °F 62.6 °F 94% 29.93 in 10.0 mi Calm Calm - N/A   Overcast
10:16 AM 66.2 °F 60.8 °F 83% 29.93 in 10.0 mi Calm Calm - N/A   Mostly Cloudy
10:36 AM 68.0 °F 60.8 °F 78% 29.92 in 10.0 mi NE 8.1 mph - N/A   Overcast
10:56 AM 68.0 °F 60.8 °F 78% 29.93 in 10.0 mi ENE 10.4 mph - N/A   Overcast
11:16 AM 68.0 °F 60.8 °F 78% 29.94 in 10.0 mi NE 10.4 mph 16.1 mph N/A   Overcast
11:36 AM 68.0 °F 60.8 °F 78% 29.95 in 10.0 mi NE 8.1 mph - N/A   Overcast
11:55 AM 69.8 °F 62.6 °F 78% 29.96 in 10.0 mi NNE 6.9 mph - N/A   Overcast
12:16 PM 69.8 °F 62.6 °F 78% 29.96 in 10.0 mi East 6.9 mph - N/A   Overcast
12:36 PM 69.8 °F 62.6 °F 78% 29.96 in 10.0 mi ENE 6.9 mph - N/A   Overcast
12:55 PM 69.8 °F 62.6 °F 78% 29.96 in 10.0 mi NE 11.5 mph 17.3 mph N/A   Overcast
1:16 PM 69.8 °F 62.6 °F 78% 29.96 in 10.0 mi ENE 8.1 mph - N/A   Overcast
1:36 PM 64.4 °F 60.8 °F 88% 29.97 in 10.0 mi East 6.9 mph - N/A   Overcast
1:56 PM 62.6 °F 57.2 °F 82% 29.98 in 10.0 mi ESE 8.1 mph - N/A   Overcast
2:16 PM 59.0 °F 55.4 °F 88% 29.98 in 3.0 mi ESE 8.1 mph - N/A   Overcast
2:36 PM 57.2 °F 55.4 °F 94% 29.99 in 0.8 mi ESE 6.9 mph - N/A   Overcast
2:55 PM 57.2 °F 55.4 °F 94% 29.99 in 0.2 mi ESE 4.6 mph - N/A Fog Fog
3:16 PM 57.2 °F 55.4 °F 94% 30.01 in 0.2 mi ESE 3.5 mph - N/A Fog Fog
3:36 PM 57.2 °F 55.4 °F 94% 30.01 in 0.8 mi Calm Calm - N/A   Overcast
3:56 PM 57.2 °F 55.4 °F 94% 30.01 in 2.0 mi Calm Calm - N/A   Overcast
4:16 PM 60.8 °F 57.2 °F 88% 30.00 in 7.0 mi Calm Calm - N/A   Overcast
4:36 PM 60.8 °F 57.2 °F 88% 29.99 in 10.0 mi Calm Calm - N/A   Overcast
4:56 PM 62.6 °F 57.2 °F 82% 30.00 in 10.0 mi East 4.6 mph - N/A   Overcast
5:16 PM 62.6 °F 57.2 °F 82% 30.02 in 7.0 mi ESE 4.6 mph - N/A   Overcast
5:36 PM 62.6 °F 59.0 °F 88% 30.04 in 10.0 mi East 3.5 mph - N/A   Overcast
5:56 PM 62.6 °F 59.0 °F 88% 30.04 in 10.0 mi East 5.8 mph - N/A   Overcast
6:16 PM 62.6 °F 59.0 °F 88% 30.03 in 10.0 mi East 3.5 mph - N/A   Overcast
6:36 PM 62.6 °F 59.0 °F 88% 30.02 in 10.0 mi East 3.5 mph - N/A   Overcast
6:56 PM 62.6 °F 59.0 °F 88% 30.05 in 10.0 mi ESE 3.5 mph - N/A   Overcast
7:16 PM 59.0 °F 57.2 °F 94% 30.07 in 4.0 mi ESE 5.8 mph - N/A   Overcast
7:36 PM 57.2 °F 55.4 °F 94% 30.08 in 1.5 mi ESE 3.5 mph - N/A   Overcast
7:56 PM 57.2 °F 55.4 °F 94% 30.08 in 2.5 mi ESE 3.5 mph - N/A   Overcast
8:16 PM 57.2 °F 55.4 °F 94% 30.06 in 0.5 mi ENE 6.9 mph - N/A Fog Fog
8:36 PM 57.2 °F 55.4 °F 94% 30.10 in 0.5 mi SSE 3.5 mph - N/A Fog Fog
8:56 PM 57.2 °F 55.4 °F 94% 30.11 in 0.5 mi South 4.6 mph - N/A Fog Fog
9:15 PM 57.2 °F 55.4 °F 94% 30.11 in 0.2 mi SSE 3.5 mph - N/A Fog Fog
9:36 PM 55.4 °F 55.4 °F 100% 30.09 in 0.2 mi ESE 6.9 mph - N/A Fog Fog
9:56 PM 55.4 °F 55.4 °F 100% 30.05 in 0.2 mi ENE 9.2 mph - N/A Fog Fog
10:15 PM 55.4 °F 55.4 °F 100% 29.99 in 0.5 mi ENE 18.4 mph - N/A Fog Fog
10:36 PM 57.2 °F 55.4 °F 94% 29.96 in 1.2 mi ENE 15.0 mph 19.6 mph N/A   Overcast
10:56 PM 57.2 °F 55.4 °F 94% 29.97 in 1.2 mi East 13.8 mph 17.3 mph N/A   Overcast
11:16 PM 57.2 °F 55.4 °F 94% 29.94 in 0.8 mi East 16.1 mph 27.6 mph N/A   Overcast
11:36 PM 57.2 °F 55.4 °F 94% 29.98 in 0.8 mi East 10.4 mph 23.0 mph N/A   Overcast
11:56 PM 55.4 °F 53.6 °F 94% 29.97 in 0.2 mi East 8.1 mph - N/A Fog , Thunderstorm Fog